| time (UTC) | temp F | wind direction | speed MPH | gust MPH | rain 1hr in | rain 24hr in | rain mn in | humidity % | barometer mb |
| 20260507191053 | 62 | 10 | 9.0 | 12.0 | 0.00 | 0.00 | 0.00 | 77 | 1015.2 |
| 20260507190553 | 62 | 50 | 6.0 | 10.0 | 0.00 | 0.00 | 0.00 | 77 | 1015.1 |
| 20260507190054 | 62 | 33 | 5.0 | 9.0 | 0.00 | 0.00 | 0.00 | 78 | 1015.2 |
| 20260507185552 | 62 | 53 | 4.0 | 11.0 | 0.00 | 0.00 | 0.00 | 78 | 1015.4 |
| 20260507185053 | 61 | 22 | 6.0 | 12.0 | 0.00 | 0.00 | 0.00 | 79 | 1015.4 |
| 20260507184553 | 61 | 16 | 7.0 | 12.0 | 0.00 | 0.00 | 0.00 | 78 | 1015.5 |
| 20260507184053 | 62 | 320 | 4.0 | 9.0 | 0.00 | 0.00 | 0.00 | 79 | 1015.6 |
| 20260507183555 | 61 | 28 | 5.0 | 10.0 | 0.00 | 0.00 | 0.00 | 79 | 1015.6 |
| 20260507183052 | 61 | 16 | 8.0 | 12.0 | 0.00 | 0.00 | 0.00 | 80 | 1015.5 |
| 20260507181538 | 61 | 23 | 7.0 | 12.0 | 0.00 | 0.00 | 0.00 | 80 | 1015.6 |
| 20260507181037 | 61 | 25 | 8.0 | 13.0 | 0.00 | 0.00 | 0.00 | 80 | 1015.8 |
| 20260507180543 | 61 | 31 | 10.0 | 13.0 | 0.00 | 0.00 | 0.00 | 80 | 1015.7 |
| 20260507180036 | 61 | 16 | 9.0 | 13.0 | 0.00 | 0.00 | 0.00 | 80 | 1015.9 |
| 20260507175537 | 61 | 44 | 9.0 | 13.0 | 0.00 | 0.00 | 0.00 | 79 | 1015.8 |
| 20260507175036 | 61 | 35 | 8.0 | 12.0 | 0.00 | 0.00 | 0.00 | 80 | 1015.8 |
| 20260507174546 | 61 | 39 | 7.0 | 12.0 | 0.00 | 0.00 | 0.00 | 80 | 1016.1 |
| 20260507174035 | 60 | 16 | 7.0 | 13.0 | 0.00 | 0.00 | 0.00 | 81 | 1015.9 |
| 20260507173535 | 60 | 31 | 7.0 | 11.0 | 0.00 | 0.00 | 0.00 | 81 | 1016.1 |
| 20260507173035 | 61 | 27 | 7.0 | 12.0 | 0.00 | 0.00 | 0.00 | 81 | 1016.2 |
| 20260507171544 | 60 | 41 | 9.0 | 12.0 | 0.00 | 0.00 | 0.00 | 81 | 1016.2 |
| 20260507171033 | 60 | 33 | 8.0 | 13.0 | 0.00 | 0.00 | 0.00 | 82 | 1016.2 |
| 20260507170533 | 60 | 15 | 8.0 | 14.0 | 0.00 | 0.00 | 0.00 | 83 | 1016.1 |
| 20260507170033 | 60 | 12 | 10.0 | 14.0 | 0.00 | 0.00 | 0.00 | 83 | 1016.1 |
| 20260507165535 | 60 | 6 | 8.0 | 13.0 | 0.00 | 0.00 | 0.00 | 84 | 1016.0 |
| 20260507165032 | 60 | 29 | 8.0 | 11.0 | 0.00 | 0.00 | 0.00 | 86 | 1016.2 |
| 20260507164534 | 59 | 44 | 7.0 | 11.0 | 0.00 | 0.00 | 0.00 | 87 | 1016.1 |
| 20260507164031 | 59 | 29 | 7.0 | 14.0 | 0.00 | 0.00 | 0.00 | 87 | 1016.2 |
| 20260507163531 | 59 | 21 | 9.0 | 14.0 | 0.00 | 0.00 | 0.00 | 86 | 1016.1 |
| 20260507163031 | 59 | 24 | 8.0 | 14.0 | 0.00 | 0.00 | 0.00 | 86 | 1016.2 |
| 20260507161520 | 60 | 9 | 8.0 | 13.0 | 0.00 | 0.00 | 0.00 | 86 | 1016.0 |
| 20260507161018 | 60 | 26 | 8.0 | 14.0 | 0.00 | 0.00 | 0.00 | 86 | 1016.1 |
| 20260507160516 | 60 | 33 | 9.0 | 14.0 | 0.00 | 0.00 | 0.00 | 86 | 1016.1 |
| 20260507160016 | 60 | 31 | 9.0 | 13.0 | 0.00 | 0.00 | 0.00 | 86 | 1015.9 |
| 20260507155513 | 60 | 37 | 10.0 | 13.0 | 0.00 | 0.00 | 0.00 | 85 | 1015.9 |
| 20260507155014 | 60 | 44 | 6.0 | 13.0 | 0.00 | 0.00 | 0.00 | 86 | 1015.7 |
| 20260507154517 | 60 | 33 | 7.0 | 14.0 | 0.00 | 0.00 | 0.00 | 86 | 1015.7 |
| 20260507154011 | 60 | 31 | 9.0 | 14.0 | 0.00 | 0.00 | 0.00 | 85 | 1015.7 |
| 20260507153511 | 60 | 31 | 7.0 | 11.0 | 0.00 | 0.00 | 0.00 | 85 | 1015.7 |
| 20260507153015 | 60 | 25 | 7.0 | 12.0 | 0.00 | 0.00 | 0.00 | 87 | 1015.6 |
| 20260507151558 | 60 | 34 | 7.0 | 12.0 | 0.00 | 0.00 | 0.00 | 87 | 1015.4 |
| 20260507151053 | 60 | 36 | 8.0 | 13.0 | 0.00 | 0.00 | 0.00 | 88 | 1015.4 |
| 20260507150553 | 60 | 27 | 9.0 | 14.0 | 0.00 | 0.00 | 0.00 | 88 | 1015.4 |
| 20260507150052 | 60 | 14 | 6.0 | 10.0 | 0.00 | 0.00 | 0.00 | 88 | 1015.3 |
| 20260507145552 | 60 | 27 | 6.0 | 10.0 | 0.00 | 0.00 | 0.00 | 87 | 1015.2 |
| 20260507145051 | 60 | 60 | 4.0 | 12.0 | 0.00 | 0.00 | 0.00 | 87 | 1015.3 |
| 20260507144551 | 60 | 31 | 6.0 | 12.0 | 0.00 | 0.00 | 0.00 | 87 | 1015.4 |
| 20260507144050 | 60 | 54 | 5.0 | 10.0 | 0.00 | 0.00 | 0.00 | 87 | 1015.4 |
| 20260507143550 | 60 | 41 | 5.0 | 10.0 | 0.00 | 0.00 | 0.00 | 87 | 1015.3 |
| 20260507143052 | 60 | 7.0 | 0.0 | 0.00 | 0.00 | 0.00 | 87 | 1015.3 | |
| 20260507141534 | 60 | 16 | 5.0 | 13.0 | 0.00 | 0.00 | 0.00 | 87 | 1015.0 |
| 20260507141032 | 60 | 23 | 9.0 | 12.0 | 0.00 | 0.00 | 0.00 | 87 | 1014.9 |
| 20260507140531 | 60 | 1 | 6.0 | 16.0 | 0.00 | 0.00 | 0.00 | 87 | 1014.8 |
| 20260507140040 | 60 | 8 | 8.0 | 18.0 | 0.00 | 0.00 | 0.00 | 86 | 1014.6 |
| 20260507135529 | 60 | 37 | 12.0 | 18.0 | 0.00 | 0.00 | 0.00 | 86 | 1014.5 |
| 20260507135030 | 60 | 19 | 12.0 | 20.0 | 0.00 | 0.00 | 0.00 | 86 | 1014.5 |
| 20260507134530 | 60 | 23 | 13.0 | 18.0 | 0.00 | 0.00 | 0.00 | 86 | 1014.6 |
| 20260507134027 | 61 | 29 | 12.0 | 17.0 | 0.00 | 0.00 | 0.00 | 86 | 1014.4 |
| 20260507133526 | 61 | 10 | 12.0 | 16.0 | 0.00 | 0.00 | 0.00 | 86 | 1014.3 |
| 20260507133026 | 62 | 21 | 12.0 | 18.0 | 0.00 | 0.00 | 0.00 | 82 | 1014.3 |
| 20260507131512 | 63 | 48 | 11.0 | 20.0 | 0.00 | 0.00 | 0.00 | 81 | 1014.2 |
| 20260507131008 | 63 | 11 | 10.0 | 20.0 | 0.00 | 0.00 | 0.00 | 79 | 1014.2 |
| 20260507130507 | 63 | 22 | 12.0 | 17.0 | 0.00 | 0.00 | 0.00 | 78 | 1014.0 |
| 20260507130004 | 64 | 28 | 12.0 | 18.0 | 0.00 | 0.00 | 0.00 | 76 | 1013.9 |
| 20260507125506 | 64 | 39 | 12.0 | 19.0 | 0.00 | 0.00 | 0.00 | 76 | 1013.6 |
| 20260507125003 | 64 | 15 | 12.0 | 18.0 | 0.00 | 0.00 | 0.00 | 76 | 1013.5 |
| 20260507124503 | 64 | 16 | 12.0 | 18.0 | 0.00 | 0.00 | 0.00 | 76 | 1013.5 |
| 20260507124002 | 64 | 14 | 13.0 | 19.0 | 0.00 | 0.00 | 0.00 | 76 | 1013.4 |
| 20260507123600 | 64 | 19 | 12.0 | 19.0 | 0.00 | 0.00 | 0.00 | 76 | 1013.2 |
| 20260507123105 | 65 | 12.0 | 0.0 | 0.00 | 0.00 | 0.00 | 73 | 1012.8 | |
| 20260507121536 | 65 | 16 | 12.0 | 17.0 | 0.00 | 0.00 | 0.00 | 73 | 1012.7 |
| 20260507121036 | 65 | 12 | 10.0 | 18.0 | 0.00 | 0.00 | 0.00 | 72 | 1012.6 |
| 20260507120534 | 65 | 14 | 12.0 | 18.0 | 0.00 | 0.00 | 0.00 | 72 | 1012.7 |
| 20260507120038 | 66 | 35 | 11.0 | 17.0 | 0.00 | 0.00 | 0.00 | 71 | 1012.8 |
| 20260507115532 | 66 | 359 | 12.0 | 17.0 | 0.00 | 0.00 | 0.00 | 70 | 1012.6 |
| 20260507115031 | 66 | 8 | 7.0 | 14.0 | 0.00 | 0.00 | 0.00 | 70 | 1012.4 |
| 20260507114529 | 66 | 21 | 9.0 | 14.0 | 0.00 | 0.00 | 0.00 | 70 | 1012.3 |
| 20260507114032 | 66 | 33 | 6.0 | 16.0 | 0.00 | 0.00 | 0.00 | 70 | 1012.3 |
| 20260507113528 | 66 | 29 | 9.0 | 16.0 | 0.00 | 0.00 | 0.00 | 70 | 1012.4 |
| 20260507113057 | 66 | 12.0 | 0.0 | 0.00 | 0.00 | 0.00 | 71 | 1012.2 | |
| 20260507111518 | 66 | 21 | 12.0 | 17.0 | 0.00 | 0.00 | 0.00 | 71 | 1012.0 |
| 20260507111016 | 67 | 29 | 10.0 | 18.0 | 0.00 | 0.00 | 0.00 | 71 | 1012.0 |
| 20260507110516 | 67 | 33 | 14.0 | 18.0 | 0.00 | 0.00 | 0.00 | 71 | 1011.9 |
| 20260507110015 | 67 | 23 | 12.0 | 19.0 | 0.00 | 0.00 | 0.00 | 71 | 1011.8 |
| 20260507105515 | 67 | 21 | 13.0 | 18.0 | 0.00 | 0.00 | 0.00 | 71 | 1011.7 |
| 20260507105012 | 67 | 4 | 11.0 | 14.0 | 0.00 | 0.00 | 0.00 | 71 | 1011.6 |
| 20260507104517 | 67 | 9 | 9.0 | 15.0 | 0.00 | 0.00 | 0.00 | 72 | 1011.5 |
| 20260507104012 | 67 | 25 | 10.0 | 15.0 | 0.00 | 0.00 | 0.00 | 72 | 1011.5 |
| 20260507103510 | 68 | 23 | 10.0 | 15.0 | 0.00 | 0.00 | 0.00 | 72 | 1011.6 |
| 20260507103010 | 68 | 9.0 | 0.0 | 0.00 | 0.00 | 0.00 | 73 | 1011.6 | |
| 20260507101600 | 68 | 24 | 8.0 | 13.0 | 0.00 | 0.00 | 0.00 | 73 | 1011.2 |
| 20260507101101 | 68 | 37 | 7.0 | 15.0 | 0.00 | 0.00 | 0.00 | 73 | 1011.2 |
| 20260507100558 | 68 | 50 | 10.0 | 15.0 | 0.00 | 0.00 | 0.00 | 73 | 1011.2 |
| 20260507100100 | 68 | 25 | 7.0 | 14.0 | 0.00 | 0.00 | 0.00 | 73 | 1011.1 |
| 20260507095556 | 69 | 35 | 10.0 | 14.0 | 0.00 | 0.00 | 0.00 | 73 | 1011.0 |
| 20260507095054 | 69 | 29 | 7.0 | 11.0 | 0.00 | 0.00 | 0.00 | 72 | 1011.1 |
| 20260507094605 | 69 | 36 | 7.0 | 11.0 | 0.00 | 0.00 | 0.00 | 72 | 1011.0 |
| 20260507094053 | 69 | 39 | 7.0 | 10.0 | 0.00 | 0.00 | 0.00 | 72 | 1011.0 |
| 20260507093553 | 69 | 58 | 4.0 | 10.0 | 0.00 | 0.00 | 0.00 | 72 | 1010.9 |
| 20260507093052 | 69 | 7.0 | 0.0 | 0.00 | 0.00 | 0.00 | 71 | 1010.9 | |
| 20260507091551 | 69 | 37 | 6.0 | 11.0 | 0.00 | 0.00 | 0.00 | 71 | 1010.8 |
| 20260507091051 | 69 | 50 | 6.0 | 13.0 | 0.00 | 0.00 | 0.00 | 70 | 1010.9 |
| 20260507090549 | 70 | 39 | 7.0 | 13.0 | 0.00 | 0.00 | 0.00 | 69 | 1011.0 |
| 20260507090048 | 70 | 23 | 8.0 | 13.0 | 0.00 | 0.00 | 0.00 | 69 | 1010.8 |
| 20260507085546 | 70 | 24 | 9.0 | 14.0 | 0.00 | 0.00 | 0.00 | 67 | 1010.8 |
| 20260507085046 | 70 | 14 | 8.0 | 14.0 | 0.00 | 0.00 | 0.00 | 66 | 1010.8 |
| 20260507084554 | 71 | 13 | 9.0 | 13.0 | 0.00 | 0.00 | 0.00 | 65 | 1010.8 |
| 20260507084043 | 71 | 17 | 8.0 | 11.0 | 0.00 | 0.00 | 0.00 | 63 | 1010.8 |
| 20260507083543 | 71 | 37 | 7.0 | 11.0 | 0.00 | 0.00 | 0.00 | 63 | 1010.8 |
| 20260507083042 | 71 | 7.0 | 0.0 | 0.00 | 0.00 | 0.00 | 61 | 1011.0 | |
| 20260507081546 | 72 | 45 | 8.0 | 10.0 | 0.00 | 0.00 | 0.00 | 61 | 1010.8 |
| 20260507081046 | 72 | 36 | 7.0 | 12.0 | 0.00 | 0.00 | 0.00 | 60 | 1010.8 |
| 20260507080545 | 72 | 37 | 7.0 | 13.0 | 0.00 | 0.00 | 0.00 | 58 | 1010.6 |
| 20260507080042 | 72 | 32 | 7.0 | 15.0 | 0.00 | 0.00 | 0.00 | 56 | 1010.7 |
| 20260507075544 | 73 | 39 | 10.0 | 15.0 | 0.00 | 0.00 | 0.00 | 56 | 1010.8 |
| 20260507075040 | 73 | 25 | 10.0 | 15.0 | 0.00 | 0.00 | 0.00 | 54 | 1010.7 |
| 20260507074542 | 73 | 23 | 6.0 | 11.0 | 0.00 | 0.00 | 0.00 | 52 | 1010.9 |
| 20260507074038 | 73 | 44 | 4.0 | 8.0 | 0.00 | 0.00 | 0.00 | 51 | 1010.9 |
| 20260507073537 | 73 | 50 | 4.0 | 8.0 | 0.00 | 0.00 | 0.00 | 50 | 1010.9 |
| 20260507073037 | 73 | 4.0 | 0.0 | 0.00 | 0.00 | 0.00 | 48 | 1010.8 | |
| 20260507071524 | 73 | 61 | 4.0 | 8.0 | 0.00 | 0.00 | 0.00 | 48 | 1010.7 |
| 20260507071024 | 73 | 15 | 4.0 | 7.0 | 0.00 | 0.00 | 0.00 | 47 | 1010.7 |
| 20260507070524 | 73 | 44 | 2.0 | 5.0 | 0.00 | 0.00 | 0.00 | 47 | 1010.8 |
| 20260507070024 | 74 | 39 | 3.0 | 5.0 | 0.00 | 0.00 | 0.00 | 46 | 1010.8 |
| 20260507065522 | 74 | 42 | 3.0 | 7.0 | 0.00 | 0.00 | 0.00 | 46 | 1010.9 |
| 20260507065021 | 74 | 31 | 4.0 | 7.0 | 0.00 | 0.00 | 0.00 | 46 | 1011.0 |
| 20260507064521 | 74 | 28 | 2.0 | 5.0 | 0.00 | 0.00 | 0.00 | 46 | 1010.9 |
| 20260507064020 | 74 | 51 | 1.0 | 5.0 | 0.00 | 0.00 | 0.00 | 46 | 1010.9 |
| 20260507063520 | 74 | 68 | 3.0 | 5.0 | 0.00 | 0.00 | 0.00 | 45 | 1010.8 |
| 20260507063019 | 74 | 0.0 | 0.0 | 0.00 | 0.00 | 0.00 | 44 | 1010.8 | |
| 20260507061534 | 74 | 48 | 3.0 | 4.0 | 0.00 | 0.00 | 0.00 | 44 | 1010.8 |
| 20260507061026 | 74 | 45 | 2.0 | 4.0 | 0.00 | 0.00 | 0.00 | 44 | 1010.8 |
| 20260507060526 | 74 | 54 | 2.0 | 4.0 | 0.00 | 0.00 | 0.00 | 44 | 1010.7 |
| 20260507060034 | 74 | 108 | 1.0 | 4.0 | 0.00 | 0.00 | 0.00 | 43 | 1010.7 |
| 20260507055525 | 74 | 112 | 1.0 | 4.0 | 0.00 | 0.00 | 0.00 | 43 | 1010.6 |
| 20260507055022 | 74 | 83 | 1.0 | 3.0 | 0.00 | 0.00 | 0.00 | 42 | 1010.4 |
| 20260507054534 | 75 | 65 | 0.0 | 0.0 | 0.00 | 0.00 | 0.00 | 42 | 1010.4 |
| 20260507054022 | 75 | 64 | 0.0 | 0.0 | 0.00 | 0.00 | 0.00 | 42 | 1010.4 |
| 20260507053620 | 75 | 62 | 0.0 | 0.0 | 0.00 | 0.00 | 0.00 | 42 | 1010.4 |
| 20260507053018 | 75 | 4.0 | 0.0 | 0.00 | 0.00 | 0.00 | 41 | 1010.3 | |
| 20260507051545 | 75 | 100 | 4.0 | 8.0 | 0.00 | 0.00 | 0.00 | 41 | 1010.3 |
| 20260507051045 | 76 | 123 | 2.0 | 5.0 | 0.00 | 0.00 | 0.00 | 40 | 1010.3 |
| 20260507050545 | 76 | 146 | 2.0 | 6.0 | 0.00 | 0.00 | 0.00 | 40 | 1010.3 |
| 20260507045543 | 76 | 145 | 4.0 | 5.0 | 0.00 | 0.00 | 0.00 | 39 | 1010.3 |
| 20260507045043 | 76 | 143 | 3.0 | 5.0 | 0.00 | 0.00 | 0.00 | 39 | 1010.3 |
| 20260507044551 | 76 | 127 | 3.0 | 5.0 | 0.00 | 0.00 | 0.00 | 39 | 1010.4 |
| 20260507044046 | 77 | 127 | 1.0 | 6.0 | 0.00 | 0.00 | 0.00 | 38 | 1010.2 |
| 20260507043541 | 77 | 135 | 3.0 | 6.0 | 0.00 | 0.00 | 0.00 | 38 | 1010.1 |
| 20260507043041 | 77 | 0.0 | 0.0 | 0.00 | 0.00 | 0.00 | 36 | 1009.9 | |
| 20260507041521 | 77 | 90 | 3.0 | 9.0 | 0.00 | 0.00 | 0.00 | 36 | 1010.0 |
| 20260507041021 | 78 | 95 | 5.0 | 12.0 | 0.00 | 0.00 | 0.00 | 36 | 1009.9 |
| 20260507040522 | 78 | 95 | 7.0 | 12.0 | 0.00 | 0.00 | 0.00 | 35 | 1009.8 |
| 20260507040023 | 78 | 100 | 6.0 | 14.0 | 0.00 | 0.00 | 0.00 | 35 | 1009.8 |
| 20260507035519 | 78 | 79 | 7.0 | 14.0 | 0.00 | 0.00 | 0.00 | 35 | 1009.9 |
| 20260507035021 | 78 | 57 | 9.0 | 14.0 | 0.00 | 0.00 | 0.00 | 34 | 1009.6 |
| 20260507034522 | 78 | 59 | 8.0 | 12.0 | 0.00 | 0.00 | 0.00 | 34 | 1009.7 |
| 20260507034021 | 79 | 75 | 8.0 | 16.0 | 0.00 | 0.00 | 0.00 | 33 | 1009.8 |
| 20260507033520 | 79 | 78 | 10.0 | 16.0 | 0.00 | 0.00 | 0.00 | 33 | 1009.5 |
| 20260507033026 | 79 | 10.0 | 0.0 | 0.00 | 0.00 | 0.00 | 31 | 1009.3 | |
| 20260507031545 | 80 | 86 | 8.0 | 16.0 | 0.00 | 0.00 | 0.00 | 31 | 1009.4 |
| 20260507031048 | 80 | 52 | 10.0 | 16.0 | 0.00 | 0.00 | 0.00 | 30 | 1009.2 |
| 20260507030545 | 80 | 50 | 10.0 | 16.0 | 0.00 | 0.00 | 0.00 | 30 | 1009.2 |
| 20260507030046 | 80 | 82 | 9.0 | 15.0 | 0.00 | 0.00 | 0.00 | 29 | 1009.3 |
| 20260507025545 | 80 | 90 | 10.0 | 15.0 | 0.00 | 0.00 | 0.00 | 28 | 1009.4 |
| 20260507025045 | 81 | 109 | 11.0 | 16.0 | 0.00 | 0.00 | 0.00 | 27 | 1009.4 |
| 20260507024547 | 81 | 90 | 11.0 | 16.0 | 0.00 | 0.00 | 0.00 | 27 | 1009.4 |
| 20260507024044 | 81 | 81 | 9.0 | 16.0 | 0.00 | 0.00 | 0.00 | 29 | 1009.0 |
| 20260507023545 | 81 | 73 | 12.0 | 16.0 | 0.00 | 0.00 | 0.00 | 30 | 1008.9 |
| 20260507023041 | 82 | 0.0 | 0.0 | 0.00 | 0.00 | 0.00 | 29 | 1008.8 | |
| 20260507021608 | 82 | 90 | 10.0 | 18.0 | 0.00 | 0.00 | 0.00 | 29 | 1008.4 |
| 20260507021058 | 82 | 75 | 9.0 | 18.0 | 0.00 | 0.00 | 0.00 | 30 | 1008.3 |
| 20260507020558 | 83 | 77 | 11.0 | 16.0 | 0.00 | 0.00 | 0.00 | 29 | 1008.4 |
| 20260507020059 | 83 | 90 | 10.0 | 15.0 | 0.00 | 0.00 | 0.00 | 29 | 1008.3 |
| 20260507015557 | 83 | 90 | 9.0 | 15.0 | 0.00 | 0.00 | 0.00 | 29 | 1008.4 |
| 20260507015057 | 83 | 90 | 11.0 | 17.0 | 0.00 | 0.00 | 0.00 | 29 | 1008.2 |
| 20260507014558 | 83 | 60 | 10.0 | 19.0 | 0.00 | 0.00 | 0.00 | 29 | 1008.1 |
| 20260507014056 | 83 | 68 | 12.0 | 18.0 | 0.00 | 0.00 | 0.00 | 30 | 1007.9 |
| 20260507013556 | 84 | 62 | 10.0 | 14.0 | 0.00 | 0.00 | 0.00 | 30 | 1007.9 |
| 20260507013054 | 84 | 0.0 | 0.0 | 0.00 | 0.00 | 0.00 | 33 | 1007.8 | |
| 20260507011548 | 84 | 95 | 9.0 | 14.0 | 0.00 | 0.00 | 0.00 | 33 | 1007.7 |
| 20260507011044 | 84 | 81 | 9.0 | 14.0 | 0.00 | 0.00 | 0.00 | 34 | 1007.5 |
| 20260507010544 | 84 | 74 | 8.0 | 12.0 | 0.00 | 0.00 | 0.00 | 34 | 1007.4 |
| 20260507010046 | 84 | 76 | 7.0 | 12.0 | 0.00 | 0.00 | 0.00 | 35 | 1007.3 |
| 20260507005544 | 85 | 81 | 6.0 | 14.0 | 0.00 | 0.00 | 0.00 | 35 | 1007.3 |
| 20260507005044 | 85 | 85 | 9.0 | 14.0 | 0.00 | 0.00 | 0.00 | 35 | 1007.2 |
| 20260507004543 | 85 | 86 | 7.0 | 13.0 | 0.00 | 0.00 | 0.00 | 35 | 1007.1 |
| 20260507004043 | 85 | 95 | 9.0 | 15.0 | 0.00 | 0.00 | 0.00 | 35 | 1007.0 |
| 20260507003543 | 85 | 83 | 10.0 | 15.0 | 0.00 | 0.00 | 0.00 | 35 | 1007.0 |
| 20260507003042 | 85 | 80 | 13.0 | 13.0 | 0.00 | 0.00 | 0.00 | 36 | 1007.1 |
| 20260507001604 | 86 | 78 | 8.0 | 15.0 | 0.00 | 0.00 | 0.00 | 36 | 1006.8 |
| 20260507001055 | 86 | 79 | 10.0 | 15.0 | 0.00 | 0.00 | 0.00 | 36 | 1006.9 |
| 20260507000555 | 86 | 70 | 11.0 | 15.0 | 0.00 | 0.00 | 0.00 | 36 | 1006.7 |
| 20260507000058 | 86 | 59 | 9.0 | 14.0 | 0.00 | 0.00 | 0.00 | 35 | 1006.7 |
| 20260506235557 | 86 | 44 | 10.0 | 14.0 | 0.00 | 0.00 | 0.00 | 35 | 1006.7 |
| 20260506235054 | 87 | 82 | 9.0 | 15.0 | 0.00 | 0.00 | 0.00 | 35 | 1006.9 |
| 20260506234619 | 87 | 66 | 8.0 | 15.0 | 0.00 | 0.00 | 0.00 | 35 | 1006.6 |
| 20260506234054 | 87 | 62 | 11.0 | 15.0 | 0.00 | 0.00 | 0.00 | 34 | 1006.5 |
| 20260506233554 | 87 | 95 | 10.0 | 19.0 | 0.00 | 0.00 | 0.00 | 34 | 1006.3 |
| 20260506233055 | 90 | 0.0 | 0.0 | 0.00 | 0.00 | 0.00 | 29 | 1006.3 | |
| 20260506231507 | 91 | 100 | 12.0 | 18.0 | 0.00 | 0.00 | 0.00 | 29 | 1006.0 |
| 20260506231007 | 92 | 90 | 4.0 | 6.0 | 0.00 | 0.00 | 0.00 | 17 | 1005.6 |
| 20260506230506 | 92 | 100 | 1.0 | 3.0 | 0.00 | 0.00 | 0.00 | 17 | 1005.7 |
| 20260506230010 | 92 | 72 | 0.0 | 10.0 | 0.00 | 0.00 | 0.00 | 17 | 1005.8 |
| 20260506225511 | 92 | 79 | 3.0 | 10.0 | 0.00 | 0.00 | 0.00 | 17 | 1005.6 |
| 20260506225006 | 92 | 112 | 3.0 | 9.0 | 0.00 | 0.00 | 0.00 | 17 | 1005.5 |
| 20260506224507 | 92 | 141 | 1.0 | 6.0 | 0.00 | 0.00 | 0.00 | 17 | 1005.3 |
| 20260506224006 | 92 | 95 | 1.0 | 5.0 | 0.00 | 0.00 | 0.00 | 17 | 1005.2 |
| 20260506223509 | 92 | 90 | 2.0 | 9.0 | 0.00 | 0.00 | 0.00 | 17 | 1005.6 |
| 20260506223012 | 92 | 50 | 6.0 | 11.0 | 0.00 | 0.00 | 0.00 | 17 | 1005.6 |
| 20260506221538 | 93 | 123 | 7.0 | 11.0 | 0.00 | 0.00 | 0.00 | 17 | 1005.3 |
| 20260506221042 | 93 | 95 | 6.0 | 11.0 | 0.00 | 0.00 | 0.00 | 17 | 1005.2 |
| 20260506220537 | 93 | 85 | 6.0 | 11.0 | 0.00 | 0.00 | 0.00 | 17 | 1005.3 |
| 20260506220038 | 93 | 66 | 6.0 | 10.0 | 0.00 | 0.00 | 0.00 | 16 | 1005.4 |
| 20260506215536 | 93 | 129 | 5.0 | 10.0 | 0.00 | 0.00 | 0.00 | 16 | 1005.5 |
| 20260506215037 | 93 | 138 | 4.0 | 6.0 | 0.00 | 0.00 | 0.00 | 17 | 1005.3 |
| 20260506214540 | 93 | 68 | 2.0 | 11.0 | 0.00 | 0.00 | 0.00 | 17 | 1005.5 |
| 20260506214035 | 93 | 56 | 7.0 | 11.0 | 0.00 | 0.00 | 0.00 | 16 | 1005.4 |
| 20260506213538 | 93 | 64 | 6.0 | 13.0 | 0.00 | 0.00 | 0.00 | 16 | 1005.4 |
| 20260506213035 | 93 | 70 | 6.0 | 13.0 | 0.00 | 0.00 | 0.00 | 16 | 1005.4 |
| 20260506212534 | 93 | 303 | 3.0 | 9.0 | 0.00 | 0.00 | 0.00 | 16 | 1005.5 |
| 20260506212035 | 93 | 140 | 5.0 | 9.0 | 0.00 | 0.00 | 0.00 | 17 | 1005.6 |
| 20260506211534 | 93 | 82 | 4.0 | 10.0 | 0.00 | 0.00 | 0.00 | 17 | 1005.7 |
| 20260506211034 | 93 | 83 | 4.0 | 10.0 | 0.00 | 0.00 | 0.00 | 16 | 1005.9 |
| 20260506210534 | 92 | 0.0 | 0.0 | 0.00 | 0.00 | 0.00 | 17 | 1005.8 | |
| 20260506210036 | 92 | 0.0 | 0.0 | 0.00 | 0.00 | 0.00 | 17 | 1006.0 | |
| 20260506204557 | 92 | 106 | 7.0 | 15.0 | 0.00 | 0.00 | 0.00 | 17 | 1005.8 |
| 20260506204050 | 93 | 59 | 5.0 | 15.0 | 0.00 | 0.00 | 0.00 | 17 | 1006.0 |
| 20260506203549 | 93 | 53 | 10.0 | 16.0 | 0.00 | 0.00 | 0.00 | 16 | 1006.0 |
| 20260506203049 | 93 | 44 | 7.0 | 16.0 | 0.00 | 0.00 | 0.00 | 17 | 1006.1 |
| 20260506202550 | 92 | 100 | 5.0 | 12.0 | 0.00 | 0.00 | 0.00 | 17 | 1006.2 |
| 20260506202051 | 92 | 33 | 5.0 | 14.0 | 0.00 | 0.00 | 0.00 | 17 | 1006.3 |
| 20260506201548 | 92 | 100 | 7.0 | 14.0 | 0.00 | 0.00 | 0.00 | 17 | 1006.2 |
| 20260506201050 | 92 | 24 | 7.0 | 12.0 | 0.00 | 0.00 | 0.00 | 17 | 1006.3 |
| 20260506200551 | 92 | 54 | 8.0 | 8.0 | 0.00 | 0.00 | 0.00 | 17 | 1006.5 |
| 20260506200105 | 93 | 0.0 | 0.0 | 0.00 | 0.00 | 0.00 | 17 | 1006.5 | |
| 20260506194520 | 93 | 254 | 1.0 | 7.0 | 0.00 | 0.00 | 0.00 | 16 | 1006.5 |
| 20260506194019 | 93 | 265 | 1.0 | 10.0 | 0.00 | 0.00 | 0.00 | 17 | 1006.5 |
| 20260506193520 | 92 | 18 | 6.0 | 16.0 | 0.00 | 0.00 | 0.00 | 17 | 1006.6 |
| 20260506193019 | 92 | 27 | 10.0 | 16.0 | 0.00 | 0.00 | 0.00 | 17 | 1006.8 |
| 20260506192519 | 93 | 27 | 8.0 | 13.0 | 0.00 | 0.00 | 0.00 | 17 | 1006.8 |
| 20260506192018 | 92 | 317 | 1.0 | 10.0 | 0.00 | 0.00 | 0.00 | 17 | 1006.8 |
| 20260506191518 | 93 | 219 | 4.0 | 10.0 | 0.00 | 0.00 | 0.00 | 17 | 1006.9 |